When you browse on this site, cookies collect data to enhance your experience and personalize the content and advertising you see.
Visit our Privacy Policy to learn more. By continuing to use the site, you agree to this use of cookies and data.
  • In Portugal
  • List of Countries
  • For 7 days
  • Water Temperature
  • Satellite Maps
  • Weather Map
  • Weather Widgets
  • user-avatar
    Login

    Hourly Weather Wilczewo

    Today, 18 February, Monday

    Time Temperature Precipitation Wind Pressure Humidity
    00:00 +5°C° 0 mm 1 mps 760 mmHg 93%
    01:00 +3°C° 0 mm 0 mps 760 mmHg 94%
    02:00 +3°C° 0 mm 0 mps 760 mmHg 95%
    03:00 +2°C° 0 mm 0 mps 760 mmHg 95%
    04:00 +2°C° 0 mm 0 mps 760 mmHg 95%
    05:00 +3°C° 0 mm 1 mps 760 mmHg 95%
    06:00 +3°C° 0 mm 1 mps 760 mmHg 95%
    07:00 +3°C° 0 mm 1 mps 760 mmHg 95%
    08:00 +4°C° 0 mm 1 mps 760 mmHg 92%
    09:00 +5°C° 0 mm 2 mps 760 mmHg 88%
    10:00 +6°C° 0 mm 2 mps 760 mmHg 85%
    11:00 +7°C° 0 mm 3 mps 759 mmHg 81%
    12:00 +8°C° 0 mm 3 mps 759 mmHg 77%
    13:00 +8°C° 0 mm 4 mps 759 mmHg 73%
    14:00 +8°C° 0 mm 4 mps 758 mmHg 75%
    15:00 +8°C° 0 mm 3 mps 758 mmHg 77%
    16:00 +8°C° 0 mm 3 mps 758 mmHg 78%
    17:00 +7°C° 0 mm 3 mps 757 mmHg 82%
    18:00 +5°C° 0 mm 3 mps 757 mmHg 86%
    19:00 +5°C° 0 mm 3 mps 757 mmHg 89%
    20:00 +4°C° 0 mm 3 mps 756 mmHg 89%
    21:00 +4°C° 0 mm 3 mps 756 mmHg 88%
    22:00 +3°C° 0 mm 3 mps 756 mmHg 88%
    23:00 +3°C° 0 mm 3 mps 755 mmHg 87%

    Tomorrow, 19 February, Tuesday

    Time Temperature Precipitation Wind Pressure Humidity
    00:00 +2°C° 0 mm 3 mps 755 mmHg 86%
    01:00 +2°C° 0 mm 3 mps 755 mmHg 85%
    02:00 +2°C° 0 mm 3 mps 754 mmHg 85%
    03:00 +1°C° 0 mm 3 mps 754 mmHg 84%
    04:00 +1°C° 0 mm 3 mps 753 mmHg 83%
    05:00 0°C° 0 mm 4 mps 753 mmHg 83%
    06:00 0°C° 0 mm 4 mps 752 mmHg 82%
    07:00 0°C° 0 mm 4 mps 752 mmHg 82%
    08:00 +1°C° 0 mm 5 mps 752 mmHg 77%
    09:00 +2°C° 0 mm 5 mps 751 mmHg 73%
    10:00 +4°C° 0 mm 6 mps 751 mmHg 69%
    11:00 +5°C° 0 mm 6 mps 751 mmHg 67%
    12:00 +7°C° 0 mm 6 mps 751 mmHg 66%
    13:00 +8°C° 0 mm 6 mps 751 mmHg 64%
    14:00 +8°C° 0 mm 6 mps 750 mmHg 68%
    15:00 +8°C° 0 mm 5 mps 750 mmHg 72%
    16:00 +7°C° 0 mm 4 mps 750 mmHg 75%
    17:00 +7°C° 0.3 mm 4 mps 750 mmHg 78%
    18:00 +6°C° 0.3 mm 4 mps 750 mmHg 82%
    19:00 +5°C° 0.3 mm 4 mps 751 mmHg 85%
    20:00 +5°C° 0 mm 4 mps 751 mmHg 86%
    21:00 +4°C° 0 mm 4 mps 751 mmHg 86%
    22:00 +4°C° 0 mm 4 mps 751 mmHg 87%
    23:00 +4°C° 0 mm 4 mps 751 mmHg 86%

    Day after tomorrow, 20 February, Wednesday

    Time Temperature Precipitation Wind Pressure Humidity
    00:00 +4°C° 0 mm 4 mps 751 mmHg 85%
    01:00 +3°C° 0 mm 5 mps 751 mmHg 84%
    02:00 +3°C° 0 mm 5 mps 751 mmHg 83%
    03:00 +2°C° 0 mm 5 mps 751 mmHg 83%
    04:00 +2°C° 0 mm 5 mps 751 mmHg 83%
    05:00 +2°C° 0.1 mm 5 mps 752 mmHg 82%
    06:00 +2°C° 0.1 mm 5 mps 752 mmHg 82%
    07:00 +2°C° 0.1 mm 5 mps 752 mmHg 82%
    08:00 +2°C° 0.1 mm 6 mps 752 mmHg 79%
    09:00 +3°C° 0.1 mm 6 mps 753 mmHg 76%
    10:00 +3°C° 0.1 mm 7 mps 753 mmHg 73%
    11:00 +4°C° 0 mm 7 mps 753 mmHg 71%
    12:00 +4°C° 0 mm 7 mps 754 mmHg 68%
    13:00 +5°C° 0 mm 7 mps 754 mmHg 66%
    14:00 +4°C° 0 mm 7 mps 754 mmHg 68%
    15:00 +4°C° 0 mm 6 mps 755 mmHg 70%
    16:00 +4°C° 0 mm 6 mps 755 mmHg 71%
    17:00 +5°C° 0 mm 5 mps 755 mmHg 75%
    18:00 +4°C° 0 mm 4 mps 755 mmHg 79%
    19:00 +4°C° 0 mm 4 mps 756 mmHg 83%
    20:00 +3°C° 0 mm 3 mps 756 mmHg 85%
    21:00 +3°C° 0 mm 3 mps 756 mmHg 87%
    22:00 +4°C° 0 mm 2 mps 756 mmHg 89%
    23:00 +3°C° 0.2 mm 3 mps 756 mmHg 90%

    21 February, Thursday

    Time Temperature Precipitation Wind Pressure Humidity
    00:00 +4°C° 0.2 mm 3 mps 756 mmHg 92%
    01:00 +4°C° 0.2 mm 3 mps 756 mmHg 93%
    02:00 +4°C° 0.5 mm 3 mps 756 mmHg 93%
    03:00 +4°C° 0.5 mm 4 mps 755 mmHg 92%
    04:00 +4°C° 0.5 mm 4 mps 755 mmHg 92%
    05:00 +4°C° 0.4 mm 4 mps 755 mmHg 92%
    06:00 +4°C° 0.4 mm 4 mps 755 mmHg 92%
    07:00 +4°C° 0.4 mm 4 mps 755 mmHg 91%
    08:00 +4°C° 1 mm 3 mps 755 mmHg 92%
    09:00 +4°C° 1 mm 3 mps 755 mmHg 92%
    10:00 +4°C° 1 mm 3 mps 755 mmHg 93%
    11:00 +5°C° 0.2 mm 3 mps 756 mmHg 91%
    12:00 +5°C° 0.2 mm 3 mps 756 mmHg 89%
    13:00 +7°C° 0.2 mm 3 mps 756 mmHg 87%
    14:00 +7°C° 0 mm 3 mps 757 mmHg 88%
    15:00 +6°C° 0 mm 2 mps 757 mmHg 89%
    16:00 +6°C° 0 mm 2 mps 757 mmHg 90%
    17:00 +5°C° 0.2 mm 2 mps 758 mmHg 90%
    18:00 +3°C° 0.2 mm 3 mps 759 mmHg 90%
    19:00 +2°C° 0.2 mm 3 mps 760 mmHg 90%
    20:00 +2°C° 0 mm 3 mps 761 mmHg 87%
    21:00 +1°C° 0 mm 3 mps 761 mmHg 84%
    22:00 0°C° 0 mm 3 mps 762 mmHg 80%
    23:00 0°C° 0 mm 3 mps 763 mmHg 78%

    22 February, Friday

    Time Temperature Precipitation Wind Pressure Humidity
    00:00 -1°C° 0 mm 2 mps 764 mmHg 76%
    01:00 -1°C° 0 mm 2 mps 764 mmHg 74%
    02:00 -2°C° 0 mm 2 mps 765 mmHg 71%
    03:00 -2°C° 0 mm 2 mps 766 mmHg 68%
    04:00 -2°C° 0 mm 3 mps 766 mmHg 66%
    05:00 -2°C° 0 mm 2 mps 767 mmHg 64%
    06:00 -2°C° 0 mm 2 mps 768 mmHg 63%
    07:00 -2°C° 0 mm 2 mps 769 mmHg 61%
    08:00 -2°C° 0 mm 2 mps 769 mmHg 55%
    09:00 -1°C° 0 mm 2 mps 770 mmHg 49%
    10:00 0°C° 0 mm 3 mps 771 mmHg 44%
    11:00 +1°C° 0 mm 2 mps 771 mmHg 40%
    12:00 +2°C° 0 mm 2 mps 771 mmHg 37%
    13:00 +3°C° 0 mm 2 mps 772 mmHg 34%
    14:00 +4°C° 0 mm 1 mps 772 mmHg 37%
    15:00 +4°C° 0 mm 1 mps 772 mmHg 39%
    16:00 +3°C° 0 mm 0 mps 772 mmHg 42%
    17:00 +3°C° 0 mm 1 mps 773 mmHg 44%
    18:00 +2°C° 0 mm 1 mps 773 mmHg 47%
    19:00 +1°C° 0 mm 1 mps 773 mmHg 49%
    20:00 -1°C° 0 mm 2 mps 773 mmHg 51%
    21:00 -1°C° 0 mm 2 mps 774 mmHg 52%
    22:00 -1°C° 0 mm 3 mps 774 mmHg 54%
    23:00 -1°C° 0 mm 3 mps 774 mmHg 54%

    23 February, Saturday

    Time Temperature Precipitation Wind Pressure Humidity
    00:00 -1°C° 0 mm 3 mps 773 mmHg 55%
    01:00 -2°C° 0 mm 4 mps 773 mmHg 55%
    02:00 -2°C° 0 mm 4 mps 773 mmHg 56%
    03:00 -2°C° 0 mm 4 mps 773 mmHg 58%
    04:00 -2°C° 0 mm 4 mps 772 mmHg 59%
    05:00 -2°C° 0 mm 4 mps 772 mmHg 61%
    06:00 -2°C° 0 mm 4 mps 772 mmHg 63%
    07:00 -2°C° 0 mm 4 mps 771 mmHg 65%
    08:00 -1°C° 0 mm 4 mps 771 mmHg 68%
    09:00 +1°C° 0 mm 4 mps 771 mmHg 71%
    10:00 +2°C° 0 mm 5 mps 771 mmHg 73%
    11:00 +3°C° 0 mm 5 mps 770 mmHg 76%
    12:00 +5°C° 0 mm 5 mps 770 mmHg 78%
    13:00 +5°C° 0 mm 6 mps 769 mmHg 80%
    14:00 +6°C° 0 mm 5 mps 769 mmHg 82%
    15:00 +6°C° 0 mm 5 mps 769 mmHg 84%
    16:00 +6°C° 0 mm 5 mps 768 mmHg 86%
    17:00 +5°C° 0 mm 4 mps 768 mmHg 87%
    18:00 +5°C° 0 mm 4 mps 768 mmHg 89%
    19:00 +4°C° 0 mm 3 mps 768 mmHg 90%
    20:00 +4°C° 0 mm 3 mps 768 mmHg 90%
    21:00 +3°C° 0 mm 3 mps 767 mmHg 89%
    22:00 +3°C° 0 mm 3 mps 767 mmHg 89%
    23:00 +3°C° 0 mm 3 mps 767 mmHg 89%
    Show more